Regional Weather Roundup
Issued by NWS

Home | Current Version | Previous Version | Text Only | Print | Product List | Glossary On
Versions: 1 2 3 4 5 6 7 8 9 10 11 12 13 14 15 16 17 18 19 20 21 22 23 24 25 26 27 28 29 30 31 32 33 34 35 36 37 38 39 40 41 42 43 44 45 46 47 48 49 50
000
ASUS42 KFFC 240603
RWRGA
WEATHER ROUNDUP FOR GEORGIA
NATIONAL WEATHER SERVICE PEACHTREE CITY GA
200 AM EDT SUN MAY 24 2015

NOTE: "FAIR" INDICATES FEW OR NO CLOUDS BELOW 12,000 FEET WITH NO
SIGNIFICANT WEATHER AND/OR OBSTRUCTIONS TO VISIBILITY.

* = USE WITH CAUTION. THE STATIONS MARKED WITH AN ASTERISK MAY NOT
REPORT WEATHER SUCH AS PRECIPITATION, FOG, OR THUNDER AND ARE NOT
QUALITY CONTROLLED BY NWS.

THE REMARK "TC" DENOTES TEMPERATURE READING IN DEGREES CELSIUS.

GAZ001>058-240700-
NORTH GEORGIA

CITY           SKY/WX    TMP DP  RH WIND       PRES   REMARKS
ATLANTA        PTCLDY    68  49  50 SE7       30.30S
6HR MIN TEMP:  68; 6HR MAX TEMP:  78;

ATHENS         PTCLDY    62  49  62 SE5       30.33S
6HR MIN TEMP:  61; 6HR MAX TEMP:  76;

CHAMBLEE       CLEAR     65  48  54 CALM      30.31S
6HR MIN TEMP:  64; 6HR MAX TEMP:  77;

PEACHTREE CITY CLEAR     57  53  86 CALM      30.30S
6HR MIN TEMP:  57; 6HR MAX TEMP:  79;

ROME           CLEAR     58  53  84 W3        30.28S
6HR MIN TEMP:  58; 6HR MAX TEMP:  78;

WEST ATLANTA   CLEAR     59  53  80 CALM      30.29F
6HR MIN TEMP:  59; 6HR MAX TEMP:  79;

GAINESVILLE    CLEAR     64  46  52 E7        30.35S
6HR MIN TEMP:  63; 6HR MAX TEMP:  75;

CARTERSVILLE   CLEAR     56  50  80 CALM      30.30S
6HR MIN TEMP:  55; 6HR MAX TEMP:  76;



CITY           SKY/WX    TMP DP  RH WIND       PRES   REMARKS
DALTON*        CLEAR     57  54  88 CALM      30.29F
BLAIRSVILLE*     N/A     51  41  69 CALM      30.35S
$$

GAZ059>098-102>109-240700-
CENTRAL GEORGIA

CITY           SKY/WX    TMP DP  RH WIND       PRES   REMARKS
AUGUSTA-BUSH   CLEAR     59  56  89 CALM      30.32F
6HR MIN TEMP:  59; 6HR MAX TEMP:  76;

AUGUSTA-DANIEL CLEAR     68  57  68 E5        30.33F
6HR MIN TEMP:  68; 6HR MAX TEMP:  81;

COLUMBUS       CLEAR     68  53  58 E5        30.26R
6HR MIN TEMP:  67; 6HR MAX TEMP:  80;

MACON          CLEAR     63  59  87 SE5       30.29F
6HR MIN TEMP:  62; 6HR MAX TEMP:  79;



CITY           SKY/WX    TMP DP  RH WIND       PRES   REMARKS
LAGRANGE*      CLEAR     62  58  88 CALM      30.27S
SYLVANIA*      PTCLDY    67  63  87 E7        30.32F
MILLEDGEVILLE* CLEAR     66  61  82 CALM      30.30F
$$

GAZ099>101-110>166-240700-
SOUTH GEORGIA

CITY           SKY/WX    TMP DP  RH WIND       PRES   REMARKS
SAVANNAH       PTCLDY    72  61  68 E7        30.30F
6HR MIN TEMP:  69; 6HR MAX TEMP:  74;

VALDOSTA       PTCLDY    70  67  90 E5        30.25F
6HR MIN TEMP:  70; 6HR MAX TEMP:  82;

ALMA           MOCLDY    68  63  84 NE3       30.27F
6HR MIN TEMP:  68; 6HR MAX TEMP:  77;

ALBANY         CLEAR     72  65  78 E9        30.27S
BRUNSWICK      CLOUDY    73  64  73 E12       30.28F


CITY           SKY/WX    TMP DP  RH WIND       PRES   REMARKS
BAINBRIDGE*    CLEAR     77  68  73 E10       30.23F
MOULTRIE*      MOCLDY    72  66  83 E5        30.26S
VIDALIA*       CLEAR     68  63  83 E7        30.29F
WAYCROSS*      PTCLDY    69  67  92 E5        30.27F
DOUGLAS*       MOCLDY    70  64  83 E6        30.29S
$$


USA.gov is the U.S. government's official web portal to all federal, state and local government web resources and services.